Temperature
6 5 5 6 6 7 7 7 7 7 7 7 6 6 7 7 7 6 7 7 8 9 9 9 9 9 9 10 10 9 9 9 9 10 10 9 9 9 9 9 9 9 9 9
5 5 6 6 6 6 6 6 6 6 7 7 6 6 6 6 6 7 7 7 8 8 8 9 9 9 9 9 9 9 9 9 9 9 9 9 9 9 8 8 8 8 8 8
5 5 6 6 6 6 6 6 6 6 6 6 6 6 6 5 5 6 7 7 8 8 8 9 9 9 9 9 9 9 9 9 9 9 8 8 8 8 8 8 8 8 8 7
4 5 6 6 6 6 6 6 6 6 6 5 5 5 5 5 5 5 5 6 7 8 8 8 8 8 9 9 9 9 8 8 8 8 8 8 8 8 8 8 7 7 7 7
4 5 5 5 5 5 5 5 5 5 5 4 4 4 5 4 5 5 5 5 6 7 8 8 8 8 8 8 8 8 8 8 8 8 8 7 7 7 7 7 7 7 7 7
4 4 5 4 4 5 4 4 4 3 3 4 4 4 4 3 5 5 5 5 5 6 7 7 8 8 8 8 8 8 8 7 7 7 7 7 7 7 7 7 7 7 6 6
3 4 4 4 4 4 4 4 3 4 3 3 3 3 4 4 4 4 4 4 5 6 6 7 7 7 7 7 7 7 7 7 7 7 7 7 6 6 6 6 6 6 6 6
3 3 3 4 4 4 4 4 4 4 3 3 2 3 4 3 3 3 4 4 5 5 6 6 6 6 7 7 7 7 7 7 7 6 6 6 6 6 6 5 5 5 5 5
2 3 3 3 3 4 3 3 3 2 2 2 3 2 3 3 3 2 3 4 4 5 5 6 6 6 6 6 6 6 6 6 6 6 6 5 5 5 5 5 5 5 5 5
2 2 2 2 3 3 3 2 2 2 3 4 4 3 3 4 3 2 2 2 3 4 4 5 5 5 5 5 5 6 6 5 5 5 5 5 5 4 4 4 4 4 4 4
1 1 1 2 2 2 2 2 2 2 2 3 3 4 3 3 2 2 2 3 3 3 4 4 4 5 5 5 5 5 5 5 5 5 4 4 4 4 4 4 4 4 3 3
1 0 0 1 1 2 2 2 1 2 2 1 1 3 3 2 2 2 2 3 3 3 3 3 4 4 4 4 4 4 4 4 4 4 4 4 3 3 3 3 3 3 3 3
1 0 1 1 1 1 1 1 1 1 1 -0 1 3 2 1 1 2 2 2 3 3 3 3 3 3 4 4 4 4 4 4 3 3 3 3 3 2 3 3 3 2 2 2
1 -0 1 2 2 0 0 0 0 0 1 0 1 2 2 1 1 1 1 2 2 2 2 3 3 3 3 3 3 3 3 3 3 3 2 2 2 2 2 2 2 2 2 2
0 -0 -1 -0 0 -0 0 -0 -0 0 1 1 2 1 2 1 1 1 1 1 2 2 2 2 2 2 3 3 2 2 2 2 2 2 2 2 2 1 1 1 1 1 1 1
-2 -1 -1 -1 -0 -0 -0 -0 -0 0 0 0 0 1 1 1 1 1 1 1 1 2 2 2 2 2 2 2 2 2 2 2 1 1 1 1 1 1 1 1 1 1 1 0
-2 -2 -1 -1 -2 -0 -0 -0 -1 -1 -1 -1 0 1 -0 -1 -1 0 1 1 1 2 2 2 2 2 2 2 2 2 1 1 1 1 1 1 0 0 0 0 0 0 -0 -0
-2 -2 -2 -2 -1 0 1 -1 -1 -1 -1 -2 -1 -1 -1 -0 0 1 2 2 2 2 2 2 2 2 1 1 1 1 1 1 0 0 0 0 -0 -0 -0 -0 -0 -0 -1 -1
-3 -2 -3 -3 -2 -1 -0 -1 -2 -1 -1 -2 -2 -1 -1 -1 -1 0 1 1 2 2 2 1 1 1 1 1 1 0 0 0 -0 -0 -0 -1 -1 -1 -1 -1 -1 -1 -1 -1
-4 -4 -3 -3 -1 -1 1 -1 -2 -1 -1 -1 -2 -2 -2 -2 -2 -1 1 1 1 1 1 1 1 1 1 0 0 -0 -0 -0 -0 -1 -1 -1 -1 -1 -1 -2 -2 -2 -2 -2
-3 -4 -3 -3 -3 -2 -1 -2 -2 -0 0 -1 -1 -1 -2 -2 -1 0 0 1 1 1 1 0 0 -0 -0 -0 -0 -0 -1 -1 -1 -1 -1 -2 -2 -2 -2 -2 -2 -2 -2 -3
-3 -3 -4 -4 -3 -1 -2 -3 -2 -1 -1 -1 -1 -1 -1 -1 -1 -0 -0 -0 -0 -0 -0 -0 -1 -1 -1 -1 -1 -1 -1 -1 -2 -2 -2 -2 -2 -2 -2 -3 -3 -3 -3 -3
-4 -4 -4 -3 -1 -2 -2 -2 -1 -1 -1 -0 -0 -0 -1 -1 -1 -1 -1 -1 -1 -1 -1 -1 -1 -1 -1 -2 -2 -2 -2 -2 -2 -2 -2 -2 -3 -3 -3 -3 -3 -3 -3 -3
-6 -6 -5 -5 -4 -3 -2 -1 -1 -1 -1 -0 -0 -1 -1 -1 -1 -1 -1 -1 -1 -2 -2 -2 -2 -2 -2 -2 -2 -2 -3 -3 -3 -3 -3 -3 -3 -3 -3 -3 -4 -4 -4 -4
-5 -7 -6 -5 -5 -4 -2 -1 -1 -1 -1 -1 -1 -1 -1 -1 -2 -2 -2 -2 -2 -2 -2 -3 -3 -3 -3 -3 -3 -3 -3 -3 -3 -3 -3 -3 -4 -4 -4 -4 -4 -4 -4 -4
-6 -6 -5 -3 -3 -4 -2 -1 -1 -1 -1 -1 -2 -2 -2 -2 -2 -2 -3 -3 -3 -3 -3 -3 -3 -3 -4 -4 -4 -4 -4 -4 -4 -4 -4 -4 -4 -4 -4 -4 -4 -4 -5 -5
Wind_Speed
2 3 4 7 6 4 3 3 3 3 1 1 5 8 8 5 5 6 6 6 6 6 5 3 4 4 4 3 4 4 4 3 3 2 2 2 1 1 1 2 3 3 3 2
3 3 5 3 3 2 3 3 3 2 1 1 4 8 8 6 6 7 8 9 8 6 4 4 3 4 5 5 5 4 4 4 4 3 2 1 2 1 1 2 3 3 3 2
5 3 2 3 3 3 4 6 5 3 2 2 2 6 5 4 3 5 6 7 7 8 8 6 5 5 4 5 5 5 5 4 3 3 2 3 3 2 1 1 1 2 2 2
2 3 1 2 3 4 5 3 3 2 1 3 0 5 7 4 4 5 7 6 7 7 7 6 6 5 6 6 4 4 4 4 3 4 4 4 3 1 1 1 0 2 2 2
2 1 2 3 3 4 3 1 1 2 2 2 2 4 8 2 5 8 8 7 7 6 6 7 6 6 5 4 4 4 4 4 3 3 4 4 2 1 1 1 1 1 2 3
2 1 1 3 1 3 4 3 3 2 1 4 6 6 7 4 7 6 5 5 5 5 5 5 4 4 3 3 3 4 4 4 3 3 3 4 4 3 2 1 1 0 1 1
3 2 1 1 2 1 3 4 2 2 1 6 3 5 9 7 6 5 6 5 5 4 4 4 4 4 4 4 4 3 4 3 3 3 3 3 3 3 3 2 1 0 1 1
2 4 2 1 3 4 4 5 6 5 5 4 2 7 7 5 4 4 4 3 3 3 3 4 4 4 4 4 4 4 4 3 3 3 3 2 3 3 2 2 2 1 1 1
4 4 2 1 0 5 4 3 3 4 1 3 6 7 8 3 4 3 2 1 2 2 2 3 3 4 4 4 4 4 4 3 3 3 3 2 2 2 2 2 1 1 1 1
3 2 2 2 1 2 3 5 4 4 3 4 5 5 5 5 5 3 2 2 2 1 2 2 3 3 3 3 3 3 3 3 3 3 3 2 2 2 2 2 1 1 1 0
2 2 2 1 4 4 2 3 3 3 3 4 4 6 4 5 3 4 4 3 3 2 2 2 2 2 2 2 3 3 3 2 2 2 2 2 2 1 2 1 1 1 1 0
3 3 2 4 2 1 3 5 5 4 4 4 4 7 3 2 2 3 3 3 2 2 1 1 1 2 2 2 2 2 2 2 2 2 2 2 2 2 2 1 1 1 1 1
4 4 1 3 2 1 2 3 3 3 3 4 5 7 2 2 3 2 2 2 1 1 1 1 1 1 2 2 1 2 2 2 2 2 2 2 2 2 1 1 1 1 1 0
2 3 5 7 5 4 4 4 4 4 4 5 8 8 6 4 4 4 3 2 1 1 2 1 1 1 1 1 1 1 1 1 2 2 2 1 1 2 2 1 1 1 1 1
2 2 4 4 3 3 5 7 8 9 9 8 8 9 10 7 5 4 3 2 1 1 1 2 2 1 1 1 1 1 1 1 2 2 1 1 1 1 1 1 1 1 1 1
2 2 1 3 2 3 5 8 10 11 9 10 10 12 8 4 2 3 4 3 3 3 3 3 2 2 2 2 2 2 2 2 2 2 1 1 1 1 1 1 0 0 0 0
2 4 2 3 3 3 8 9 11 7 7 8 12 11 4 3 5 6 6 5 5 5 4 4 3 3 3 3 3 3 2 2 2 2 1 1 1 0 0 0 1 0 0 0
5 4 3 1 1 6 7 2 6 8 8 9 8 6 6 7 5 4 5 6 6 5 4 4 4 3 3 2 2 2 2 2 2 2 1 1 1 1 0 1 0 0 0 0
4 6 4 3 3 8 7 3 4 6 6 7 10 9 6 2 2 4 4 5 6 6 5 4 4 3 3 2 2 2 2 2 2 2 2 2 2 1 1 1 1 0 0 1
2 4 4 4 3 7 6 2 2 3 5 5 6 7 5 2 2 5 3 3 3 3 2 2 2 2 2 3 3 3 3 2 3 2 2 2 2 2 2 2 1 1 1 1
3 2 5 5 6 8 5 2 4 4 6 2 4 4 4 5 6 4 3 2 2 2 1 1 2 2 3 3 3 3 3 3 3 2 1 1 2 2 2 2 1 1 1 1
7 6 6 5 5 9 2 5 6 6 1 1 2 3 4 5 4 4 4 3 2 2 1 1 2 1 1 2 3 3 3 2 1 1 1 1 1 2 1 2 1 1 1 1
7 8 6 8 8 3 4 5 3 2 2 2 2 3 3 3 4 4 3 3 2 2 1 1 2 1 1 2 3 3 3 1 1 1 1 1 1 1 1 2 2 1 2 2
4 2 4 5 7 5 5 4 3 2 3 3 2 2 3 3 4 4 3 3 2 2 1 1 1 1 1 1 1 2 2 2 2 2 2 1 1 1 1 2 2 2 2 2
5 5 4 6 6 4 4 5 4 3 3 2 2 2 3 3 3 3 3 3 2 2 1 1 2 2 2 1 1 1 2 2 2 2 2 2 2 2 2 2 2 3 3 4
5 6 7 7 5 5 5 3 2 3 3 3 2 2 2 2 3 3 3 2 2 1 1 1 2 2 2 1 2 2 2 2 2 2 2 2 2 2 2 2 2 3 4 5
Wind_Direction
44 93 202 211 203 202 169 180 217 238 266 212 241 262 269 244 231 228 226 223 222 229 230 207 188 173 157 144 147 158 146 143 131 120 121 127 140 134 86 60 63 64 72 82
62 243 234 183 163 161 201 219 241 286 332 223 266 274 274 244 233 227 223 225 224 228 225 204 187 174 172 169 167 170 164 157 153 151 151 141 128 124 99 47 48 46 47 53
186 239 182 153 155 178 231 218 223 238 329 354 317 293 269 261 246 242 233 227 223 219 217 206 195 192 180 180 180 179 176 166 158 140 113 100 83 69 63 28 3 7 25 47
226 268 158 147 191 176 237 234 213 213 197 277 165 275 278 260 273 254 244 232 226 224 216 208 196 192 194 196 182 172 168 162 156 144 143 141 143 160 199 202 212 2 23 36
243 219 171 203 224 177 195 97 153 210 190 272 236 227 282 297 265 259 245 235 231 224 213 206 200 194 191 182 170 168 158 148 146 139 149 148 138 147 126 108 84 39 15 27
265 294 207 202 199 162 150 77 45 37 92 254 225 203 275 244 240 260 246 239 234 221 213 202 190 170 164 152 155 156 154 151 145 139 138 143 144 138 129 128 130 21 342 3
323 308 299 144 93 57 114 106 36 342 294 249 204 207 250 251 250 251 249 245 240 219 201 188 177 172 166 158 157 156 154 153 146 140 138 143 145 146 156 170 177 189 308 299
194 269 240 209 175 175 192 161 170 202 229 271 224 230 251 263 281 278 260 238 219 212 201 193 187 179 174 168 162 158 162 161 153 148 150 143 143 149 159 172 178 199 238 277
185 241 330 346 38 143 150 192 163 140 180 260 260 275 293 277 296 305 297 215 219 222 201 189 176 171 173 174 176 170 167 166 165 161 152 144 147 153 162 174 168 195 241 288
163 233 292 289 71 22 161 151 125 152 183 247 275 265 258 272 277 298 293 253 241 214 185 172 168 165 170 172 168 152 156 166 165 158 161 157 161 170 169 170 179 199 216 277
133 165 316 17 192 192 150 162 159 160 176 187 255 267 239 246 259 259 259 253 239 211 195 181 164 152 140 137 146 147 148 144 146 152 158 149 160 158 151 170 188 193 205 224
163 145 235 253 252 234 206 199 169 179 220 202 220 265 295 257 276 257 263 268 236 190 175 171 149 129 128 141 144 148 153 158 166 163 157 156 152 149 152 171 191 176 195 222
154 139 84 338 328 329 237 215 186 144 144 180 207 262 318 3 337 314 292 276 215 165 145 129 136 146 155 162 160 158 160 164 157 147 148 148 155 161 175 190 182 147 148 164
146 157 188 211 228 196 225 217 185 168 203 224 228 251 278 288 295 311 315 286 216 188 177 159 173 191 175 168 169 173 177 167 152 140 145 164 181 190 199 186 168 162 157 167
114 199 225 250 266 225 225 225 206 208 213 220 242 242 252 248 251 271 287 286 269 248 219 207 207 221 201 178 180 182 188 176 160 146 152 195 191 162 157 156 163 147 148 189
113 166 179 272 275 257 253 240 222 225 228 236 255 262 254 249 233 252 252 238 237 247 241 232 218 208 207 203 206 200 201 197 167 162 180 187 135 121 151 169 158 100 76 3
157 145 151 256 305 338 265 231 211 213 212 204 230 245 241 236 233 236 236 230 231 238 243 236 231 222 216 211 202 203 210 187 167 168 174 162 141 126 140 145 108 94 46 50
164 147 152 185 62 243 252 217 202 211 233 220 233 249 236 236 249 248 235 230 236 236 235 238 234 230 221 210 202 198 184 170 168 176 183 176 158 157 142 127 130 63 288 273
180 155 149 157 228 274 286 240 183 194 257 227 227 244 252 264 335 292 250 228 233 233 233 231 224 216 200 199 192 169 166 163 170 193 201 201 188 190 190 203 236 248 233 289
105 133 146 159 198 242 255 213 170 123 283 247 210 232 238 154 243 268 281 249 253 258 249 232 200 179 186 201 173 161 175 179 204 217 218 210 196 197 211 218 232 249 262 269
143 147 181 191 224 261 255 196 130 166 248 258 196 211 197 200 224 268 307 288 271 277 275 198 171 183 201 190 165 173 186 213 226 218 206 205 203 204 211 216 224 206 235 276
178 177 191 174 211 250 197 144 184 217 269 208 202 201 207 238 269 286 292 293 296 302 308 172 172 210 206 176 168 187 219 230 199 179 192 219 224 224 211 191 216 213 198 214
199 193 188 197 218 256 185 201 227 196 220 234 217 222 215 251 269 287 291 288 286 275 258 209 175 202 226 192 179 197 232 198 169 173 210 233 249 248 228 209 215 220 206 212
244 190 183 244 261 255 247 255 268 239 239 256 243 233 211 241 263 276 280 281 282 274 249 206 169 197 244 232 211 208 209 183 169 201 227 234 232 253 246 234 222 218 220 224
213 173 196 246 267 292 270 241 247 255 255 260 269 242 232 238 264 260 265 266 267 277 279 213 202 223 247 251 254 234 206 181 190 216 230 237 238 237 245 246 236 233 230 226
196 185 191 226 222 202 238 241 217 223 247 242 245 284 277 231 245 260 267 267 260 258 263 247 244 241 249 248 262 264 234 200 194 222 232 229 235 238 238 245 279 270 259 262
Height
1490 1495 1497 1496 1496 1497 1499 1502 1503 1502 1500 1501 1501 1499 1496 1496 1497 1497 1497 1498 1498 1500 1502 1504 1505 1507 1509 1510 1513 1515 1517 1518 1519 1520 1521 1523 1524 1525 1526 1526 1526 1527 1528 1528
1495 1496 1494 1494 1495 1497 1499 1501 1503 1502 1501 1501 1502 1499 1494 1493 1493 1492 1493 1494 1495 1497 1499 1500 1502 1504 1506 1507 1510 1512 1514 1515 1517 1518 1520 1521 1521 1522 1523 1524 1524 1525 1525 1525
1494 1494 1492 1494 1496 1498 1499 1501 1502 1503 1502 1502 1502 1498 1493 1490 1489 1489 1489 1490 1491 1493 1494 1496 1499 1501 1503 1505 1507 1509 1511 1513 1514 1516 1517 1518 1519 1520 1521 1521 1521 1522 1522 1523
1494 1493 1493 1494 1495 1496 1499 1498 1499 1501 1504 1507 1506 1505 1492 1490 1488 1486 1486 1486 1487 1489 1491 1493 1495 1497 1499 1502 1504 1506 1508 1510 1512 1513 1514 1515 1516 1517 1518 1518 1519 1519 1519 1520
1494 1493 1493 1494 1495 1495 1498 1498 1500 1502 1505 1509 1508 1509 1495 1490 1487 1483 1482 1482 1483 1485 1487 1489 1491 1494 1496 1499 1501 1503 1505 1507 1509 1510 1511 1512 1513 1514 1515 1516 1516 1517 1517 1517
1493 1493 1493 1493 1494 1495 1497 1500 1503 1507 1508 1509 1506 1508 1496 1491 1483 1479 1478 1479 1480 1481 1483 1486 1488 1491 1493 1495 1497 1500 1502 1504 1506 1507 1508 1509 1510 1511 1512 1513 1513 1514 1514 1514
1495 1493 1493 1493 1495 1496 1497 1504 1512 1512 1516 1510 1505 1505 1493 1481 1479 1477 1477 1477 1477 1479 1480 1482 1485 1487 1489 1491 1494 1496 1498 1500 1502 1504 1505 1506 1507 1508 1509 1509 1510 1511 1511 1511
1498 1498 1493 1493 1493 1496 1498 1499 1509 1512 1514 1510 1506 1502 1486 1478 1477 1475 1475 1475 1475 1476 1477 1479 1481 1484 1486 1488 1491 1493 1495 1497 1499 1500 1502 1503 1504 1505 1506 1506 1507 1507 1508 1508
1497 1497 1493 1492 1492 1493 1498 1500 1502 1510 1514 1511 1503 1495 1484 1476 1475 1474 1473 1473 1473 1474 1475 1477 1479 1481 1484 1486 1488 1490 1492 1494 1496 1497 1499 1500 1501 1502 1502 1503 1504 1504 1504 1504
1493 1499 1495 1494 1493 1494 1495 1498 1505 1507 1507 1503 1497 1495 1486 1477 1474 1473 1473 1472 1472 1473 1474 1475 1477 1479 1482 1484 1486 1487 1489 1491 1493 1494 1495 1496 1497 1498 1499 1500 1500 1500 1501 1501
1493 1499 1499 1496 1495 1495 1497 1499 1499 1503 1504 1504 1501 1489 1477 1475 1473 1473 1472 1471 1471 1472 1473 1474 1476 1478 1480 1482 1483 1485 1487 1488 1490 1491 1492 1493 1494 1495 1496 1496 1497 1497 1497 1497
1492 1497 1501 1498 1494 1494 1494 1494 1497 1500 1503 1506 1504 1491 1475 1474 1472 1472 1471 1470 1470 1471 1472 1474 1475 1477 1478 1480 1481 1483 1484 1486 1487 1488 1489 1490 1491 1491 1492 1493 1493 1493 1493 1493
1490 1496 1500 1498 1499 1497 1495 1494 1495 1497 1501 1507 1502 1486 1474 1473 1472 1472 1471 1470 1470 1470 1472 1473 1474 1475 1476 1478 1479 1480 1482 1483 1484 1485 1486 1487 1488 1488 1489 1489 1489 1490 1490 1490
1487 1492 1494 1492 1489 1491 1493 1492 1494 1495 1497 1498 1492 1481 1475 1473 1472 1471 1471 1470 1469 1470 1471 1471 1472 1473 1474 1476 1477 1478 1479 1480 1481 1482 1483 1484 1484 1485 1485 1486 1486 1486 1486 1486
1486 1491 1492 1490 1488 1489 1488 1488 1490 1490 1487 1487 1480 1479 1471 1471 1471 1470 1470 1469 1469 1469 1469 1469 1470 1471 1473 1474 1474 1475 1477 1478 1479 1479 1480 1481 1481 1482 1482 1482 1482 1483 1483 1483
1487 1490 1491 1491 1488 1488 1487 1484 1485 1483 1483 1482 1479 1474 1467 1468 1469 1469 1468 1468 1468 1467 1467 1468 1468 1469 1470 1471 1472 1473 1474 1475 1476 1476 1477 1478 1478 1478 1479 1479 1479 1479 1479 1479
1488 1490 1491 1491 1492 1486 1483 1477 1478 1477 1476 1477 1474 1467 1465 1467 1466 1465 1465 1466 1465 1465 1465 1466 1466 1467 1468 1469 1470 1471 1471 1472 1473 1473 1474 1474 1475 1475 1476 1476 1476 1476 1476 1476
1485 1488 1492 1494 1492 1488 1470 1469 1469 1470 1469 1469 1466 1463 1462 1462 1462 1462 1462 1463 1462 1463 1464 1464 1464 1465 1466 1467 1468 1468 1469 1469 1470 1470 1471 1472 1472 1472 1472 1473 1473 1473 1473 1472
1480 1485 1491 1495 1492 1482 1470 1467 1467 1468 1466 1462 1462 1461 1461 1461 1461 1460 1460 1460 1460 1460 1461 1461 1462 1462 1463 1464 1465 1465 1466 1466 1467 1467 1468 1469 1469 1469 1469 1470 1470 1470 1469 1469
1481 1482 1489 1493 1487 1480 1465 1463 1463 1466 1465 1457 1457 1458 1459 1460 1464 1459 1457 1457 1457 1458 1458 1458 1459 1459 1460 1461 1462 1462 1463 1463 1464 1465 1465 1466 1466 1466 1467 1467 1467 1467 1466 1466
1482 1485 1486 1489 1486 1474 1463 1462 1463 1468 1460 1455 1454 1455 1457 1458 1458 1456 1455 1455 1455 1455 1455 1455 1456 1456 1457 1458 1459 1459 1460 1460 1461 1462 1462 1463 1463 1464 1464 1464 1464 1464 1463 1463
1475 1479 1483 1485 1483 1471 1460 1461 1462 1458 1454 1453 1453 1454 1454 1454 1454 1454 1453 1453 1452 1452 1452 1452 1452 1453 1454 1455 1455 1456 1456 1457 1458 1459 1459 1460 1461 1461 1461 1461 1461 1461 1461 1460
1470 1468 1469 1468 1463 1457 1456 1455 1454 1454 1454 1453 1453 1453 1453 1453 1452 1451 1451 1450 1450 1449 1449 1450 1450 1450 1451 1452 1453 1453 1454 1454 1455 1456 1456 1457 1457 1458 1458 1458 1458 1457 1457 1457
1465 1464 1465 1465 1457 1454 1454 1453 1452 1453 1453 1452 1452 1452 1451 1450 1450 1449 1449 1448 1447 1447 1447 1447 1447 1447 1448 1449 1450 1450 1451 1452 1452 1452 1453 1454 1454 1454 1455 1455 1454 1454 1454 1454
1458 1461 1462 1460 1454 1452 1450 1450 1450 1451 1451 1450 1450 1450 1449 1448 1448 1447 1446 1445 1445 1445 1445 1445 1445 1445 1445 1446 1447 1448 1448 1449 1449 1449 1450 1450 1451 1451 1451 1451 1451 1451 1451 1451
1453 1455 1456 1452 1448 1449 1448 1447 1448 1448 1448 1448 1448 1447 1447 1446 1445 1445 1444 1443 1443 1443 1443 1443 1443 1443 1443 1444 1444 1445 1445 1446 1446 1446 1447 1447 1447 1447 1447 1447 1448 1448 1448 1448